Wind_Speed
9 8 9 10 11 11 12 12 6 6 6 8 6 6 6 7 5 8 9 9 10 8 6 7 5 2 7 11 14 15 15 15 17 17 15 14 14 13 13 14 14 13 13 16 19 18 17 16 16 15 15 14 14 14 14 14 14 14 14 14 14 13 13 13 12 11 10 10 10 10 10 10 9 9 9 8 8 9 10 10 9 8 7 7 6 5
9 9 11 13 13 11 13 14 8 8 9 5 8 5 6 6 4 7 8 9 8 6 5 7 8 5 7 8 12 15 15 15 16 17 17 16 15 13 13 15 14 13 13 16 18 18 18 17 16 16 15 15 15 15 15 14 14 14 14 15 14 13 13 12 11 10 9 9 9 9 9 10 10 9 9 8 8 10 10 10 9 8 7 7 6 5
10 11 13 13 12 10 9 10 9 10 12 5 5 5 4 4 5 5 7 9 8 3 4 8 9 6 4 8 11 15 14 13 15 16 16 17 15 14 14 14 14 14 14 15 16 18 19 18 17 16 15 16 15 16 15 14 15 15 14 14 13 13 12 11 11 10 9 8 7 7 8 9 10 10 9 8 8 10 11 10 9 8 7 7 6 6
8 11 14 12 11 9 6 7 8 8 10 4 6 5 4 6 4 2 6 10 8 4 5 8 6 2 1 7 10 13 14 12 14 15 15 15 14 15 15 14 14 15 15 15 16 17 19 19 18 16 16 16 16 16 16 15 15 15 14 14 13 13 12 11 11 10 9 9 6 6 6 7 8 9 8 8 8 9 11 11 9 8 8 7 7 7
9 12 14 12 10 8 8 11 10 7 8 4 8 5 5 8 4 1 7 10 8 6 8 9 4 1 1 6 8 8 11 13 14 15 15 15 14 15 15 15 15 15 15 16 16 16 18 18 18 17 17 17 16 16 16 16 15 15 15 15 14 13 12 12 11 10 10 10 8 7 7 7 8 9 9 9 9 9 10 10 10 9 9 8 7 7
12 10 10 13 11 8 11 13 10 8 8 5 8 5 7 10 5 6 11 10 7 6 10 10 5 3 3 7 7 6 7 12 14 15 16 15 15 14 14 15 15 14 14 15 15 15 17 18 17 17 17 17 17 16 16 16 15 15 15 15 15 13 13 13 12 11 11 10 9 9 9 9 9 9 9 9 10 10 10 10 10 10 10 9 8 8
9 7 8 11 10 11 13 11 9 9 8 5 7 6 12 14 10 11 13 8 4 4 8 9 4 3 4 7 8 6 6 10 14 16 16 15 15 14 13 14 14 14 14 14 14 16 17 19 18 17 17 17 17 16 16 16 15 15 16 16 15 14 13 13 13 12 10 9 9 10 10 9 9 9 9 8 8 9 9 9 10 10 10 9 8 8
8 9 9 11 9 11 11 9 8 9 8 2 3 5 11 13 11 12 11 5 2 4 6 6 1 3 3 5 8 10 9 11 14 17 16 15 15 15 15 15 15 15 14 14 14 15 17 19 19 18 18 17 17 17 17 16 16 16 16 16 15 14 13 14 14 13 10 9 9 9 8 9 9 9 9 8 8 8 8 9 10 10 10 9 8 8
10 7 8 12 12 9 9 11 7 7 9 1 2 3 7 11 8 8 7 4 3 4 5 6 4 2 2 3 6 10 11 12 14 16 17 16 16 16 16 16 17 16 15 15 15 15 17 19 19 18 18 17 18 18 17 17 17 16 16 16 15 14 13 14 15 14 10 9 9 8 8 8 7 9 10 9 8 8 8 8 8 8 9 9 8 7
7 6 5 10 12 8 10 12 5 5 7 2 2 4 7 12 10 6 4 4 2 3 4 10 11 5 2 4 6 8 10 10 11 14 15 16 17 16 16 17 17 15 14 14 15 15 17 19 19 19 18 17 17 17 17 17 17 17 17 17 16 14 14 14 14 14 11 9 9 7 7 8 7 8 10 9 9 8 8 8 8 7 7 8 9 8
3 6 5 7 10 9 11 12 6 5 6 2 2 5 4 9 11 6 2 4 2 2 1 9 13 8 2 4 8 8 9 11 10 12 15 16 17 17 16 16 16 15 14 13 14 16 18 19 19 19 19 18 17 17 17 17 17 18 17 17 16 14 14 14 14 13 12 10 9 7 7 8 7 8 9 9 9 8 8 8 8 7 7 8 8 8
4 6 5 7 10 9 11 10 5 4 6 4 4 4 4 6 7 5 2 2 3 1 1 8 13 10 4 4 7 8 11 15 12 11 15 17 17 17 16 16 16 14 14 14 13 15 17 17 18 19 19 18 18 17 17 18 17 18 18 18 17 15 14 14 15 14 12 11 9 8 8 8 8 8 8 8 8 9 8 8 8 8 7 7 7 8
7 7 8 10 11 10 9 6 5 6 9 7 4 5 6 5 5 3 4 4 3 2 3 8 10 8 4 4 8 11 12 15 13 11 15 18 18 18 16 16 15 14 14 14 13 14 14 15 17 18 19 19 18 17 17 17 18 17 18 18 18 16 15 14 15 14 12 11 10 9 9 8 8 8 8 7 8 8 8 8 8 8 8 7 8 8
8 7 10 11 11 11 9 7 6 8 9 9 6 6 6 5 4 5 4 4 4 3 6 10 10 6 2 3 8 15 15 15 15 11 11 17 19 18 17 16 15 14 14 13 14 14 13 15 18 18 18 19 18 18 17 16 17 17 17 18 18 17 16 14 14 14 13 12 11 10 9 9 8 8 8 8 8 8 8 8 8 8 8 8 8 8
9 7 10 12 9 11 14 12 9 6 8 10 8 6 7 5 4 4 3 2 2 4 4 7 7 2 1 3 6 11 15 15 13 9 6 11 15 15 15 16 16 15 14 13 14 15 15 18 19 18 18 18 18 19 17 16 16 16 17 18 18 18 17 16 15 14 14 12 11 11 10 9 9 9 8 8 7 8 8 8 8 8 8 8 8 8
11 8 10 16 12 11 15 15 12 10 7 8 8 7 7 6 5 5 3 2 2 3 2 2 3 1 2 5 5 8 12 10 8 8 7 8 10 13 15 15 15 15 14 14 14 15 17 20 20 18 18 18 18 19 18 17 16 16 16 18 18 18 18 17 16 15 14 13 12 12 11 10 10 9 9 8 8 8 8 8 8 8 7 8 8 8
9 5 9 14 13 12 13 14 14 11 5 4 8 9 7 7 6 6 3 3 3 3 3 5 4 5 4 6 7 9 11 9 7 9 10 6 7 13 15 14 14 14 14 14 14 14 16 20 20 19 18 19 19 19 19 18 17 16 17 17 18 18 18 18 17 16 15 14 13 13 12 11 11 11 10 10 9 9 9 8 8 8 8 8 8 9
6 5 9 12 13 11 9 11 15 13 8 4 6 7 8 8 6 4 4 4 5 3 3 5 5 6 5 4 8 11 13 13 12 12 13 10 8 11 14 14 15 15 15 15 15 15 16 19 20 20 20 19 19 19 19 19 18 17 17 17 18 18 18 18 18 17 16 15 14 14 14 13 12 12 11 10 10 9 9 9 9 9 9 9 8 8
5 6 8 10 11 10 9 10 12 13 13 11 7 4 6 8 6 6 5 5 6 3 1 4 6 6 3 3 9 12 13 15 16 15 16 15 13 10 12 15 16 16 16 15 15 14 15 19 21 20 20 20 19 18 18 19 18 18 17 17 18 18 18 18 18 17 16 16 15 14 15 14 13 12 12 10 9 9 9 9 9 9 9 9 9 8
4 7 4 8 10 11 10 9 9 10 13 14 9 5 6 6 6 6 5 5 5 2 2 3 4 2 2 4 10 12 13 15 15 15 15 17 16 13 10 13 16 15 15 15 15 14 15 19 22 22 20 19 19 18 18 19 19 18 18 17 17 18 18 17 17 17 17 16 15 14 15 15 14 13 12 10 10 10 9 9 9 10 10 9 10 9
4 7 3 5 9 10 9 8 10 9 10 11 10 7 7 6 6 5 5 6 6 4 3 2 2 2 3 3 8 10 12 13 13 14 13 13 16 14 11 11 13 14 14 16 16 15 16 19 22 22 20 19 18 18 18 19 19 18 18 17 17 18 18 18 17 17 17 16 16 15 15 15 15 14 13 12 12 11 11 10 10 10 10 9 10 10
4 7 5 4 7 8 8 9 12 12 9 9 9 8 8 7 7 6 6 6 6 6 4 2 1 2 3 0 4 8 9 10 12 12 10 11 13 13 12 9 9 10 10 13 16 16 16 19 21 21 20 19 18 17 18 18 18 18 18 17 17 17 17 17 18 17 17 16 16 15 15 15 15 15 14 14 14 13 12 12 11 11 10 10 10 10
2 6 7 5 4 7 9 11 13 14 12 10 9 10 10 8 7 7 6 6 6 6 5 4 2 3 3 2 5 8 7 8 11 12 10 11 11 12 13 10 7 5 3 8 14 16 16 19 20 20 19 18 18 18 19 18 18 18 17 17 17 17 17 17 16 17 16 16 16 16 15 15 15 15 15 15 15 15 14 13 13 12 12 12 12 11
1 5 6 7 5 5 9 10 13 14 12 9 9 10 10 10 9 9 7 5 5 6 6 5 3 3 3 3 5 9 9 8 10 12 12 11 10 11 14 12 8 8 8 12 15 13 15 18 19 19 18 17 17 18 18 17 16 16 17 17 17 18 18 18 16 16 16 16 16 16 16 16 15 16 16 16 15 15 15 14 13 13 13 13 12 12
2 6 5 7 6 7 9 7 8 10 9 7 8 10 12 13 13 11 7 4 6 6 7 5 2 3 4 4 4 7 11 9 9 11 11 11 10 11 13 12 9 8 9 10 11 12 14 16 16 16 16 15 15 16 17 17 16 16 17 17 17 18 19 18 17 16 17 16 16 16 16 16 16 16 16 16 16 15 15 14 14 14 14 13 12 12
4 4 4 7 7 7 6 4 4 7 8 8 10 11 12 14 16 11 6 6 7 6 8 5 1 4 5 6 6 6 9 10 10 11 11 11 12 12 12 13 10 8 7 6 6 7 8 10 12 14 14 14 14 14 15 16 16 16 17 16 16 16 17 18 17 17 17 16 16 16 16 16 16 16 16 16 16 16 15 15 14 14 14 13 13 12
4 5 6 7 7 6 3 5 8 7 9 11 12 14 13 14 15 11 7 7 7 7 8 4 3 5 5 6 8 8 9 10 10 11 11 11 12 13 12 12 11 9 8 7 7 6 5 7 9 12 13 13 14 14 14 14 14 15 16 16 15 15 16 16 17 18 17 16 16 16 16 16 16 16 16 16 15 15 15 16 15 14 14 13 13 14
5 6 7 7 9 10 9 7 9 10 11 12 14 15 13 11 10 10 9 7 5 6 7 2 1 4 6 7 9 8 8 10 11 11 11 11 11 11 12 13 13 11 10 9 8 7 6 6 7 9 11 10 11 12 13 13 13 13 14 14 14 14 15 16 16 17 17 17 17 16 16 16 15 15 15 14 14 14 13 14 15 14 14 13 14 15
5 6 7 8 10 11 11 8 8 10 11 11 12 13 12 12 12 12 12 9 7 8 5 4 5 4 2 5 9 8 7 9 10 10 10 11 11 11 12 13 13 13 13 12 10 9 7 6 6 8 9 8 8 10 11 12 13 13 13 13 14 14 15 15 15 16 16 16 16 16 16 15 14 13 13 11 12 13 13 12 13 14 14 14 14 14
4 5 6 9 9 10 10 9 8 9 10 9 7 6 8 11 13 12 12 12 12 11 6 3 3 1 6 2 4 8 7 8 9 7 9 11 11 11 12 12 12 13 14 13 12 11 8 7 8 9 9 8 7 9 10 10 12 13 13 13 14 14 14 14 14 13 14 15 15 15 16 15 14 13 13 12 12 12 12 13 13 14 14 15 15 14
3 5 5 8 9 8 9 9 9 10 9 5 1 3 6 9 9 8 8 9 10 8 5 5 5 5 6 2 2 6 8 8 9 8 8 9 11 11 11 11 12 11 11 11 12 11 8 8 8 9 9 8 8 10 11 10 11 13 13 13 14 13 13 13 13 12 12 12 13 13 14 14 13 13 13 12 12 12 12 13 13 14 13 14 15 15
3 4 5 7 8 6 7 10 12 10 7 5 2 4 5 5 5 5 5 4 4 5 6 7 5 4 7 4 2 5 7 9 10 10 8 7 9 10 10 9 9 10 9 9 9 9 8 7 8 10 10 10 10 11 11 11 12 12 12 12 12 12 11 11 11 11 11 10 10 11 12 12 12 12 12 11 10 10 10 11 12 13 13 13 14 14
3 4 5 7 6 5 6 9 11 10 8 6 3 5 5 2 3 4 4 5 5 4 5 4 0 3 6 7 5 4 6 8 9 9 8 7 7 8 8 7 7 8 7 7 7 6 5 4 5 6 7 8 8 7 6 7 8 9 9 9 9 9 10 9 9 9 8 7 7 8 9 10 10 12 12 10 9 8 8 9 10 11 11 11 11 11
3 5 6 6 5 5 5 5 7 9 8 2 4 7 6 3 4 4 5 7 6 3 3 4 3 3 4 6 6 4 5 6 8 7 7 7 6 6 7 7 7 7 8 8 8 8 8 9 9 9 10 9 9 8 7 7 10 12 13 12 9 7 7 7 8 9 9 7 7 7 9 10 11 12 13 12 11 11 10 10 10 10 10 9 9 9
4 5 6 5 5 6 5 5 7 6 4 3 7 9 8 6 5 5 8 7 7 5 4 3 2 3 3 5 6 5 5 8 8 8 8 8 7 7 8 8 9 9 9 9 8 8 9 10 11 12 12 12 11 11 11 11 13 15 16 14 12 9 7 6 6 8 9 9 8 9 11 13 14 14 13 13 13 14 14 13 13 13 11 9 9 10
5 4 5 5 5 5 5 6 5 1 3 3 6 10 10 9 7 5 7 7 9 7 4 2 3 6 7 8 9 7 8 10 8 7 7 8 8 8 8 8 9 10 9 9 9 9 10 11 11 13 13 12 12 12 12 13 15 17 16 14 13 12 10 8 5 4 5 7 8 8 9 11 12 11 12 13 13 12 11 12 12 12 11 9 10 13
4 4 4 5 5 5 6 7 3 1 2 3 6 9 9 8 7 3 3 7 10 8 6 5 2 3 6 8 8 9 10 9 8 6 6 8 9 9 9 10 11 11 11 11 12 12 12 13 14 14 14 16 16 16 16 16 17 20 20 17 16 16 15 13 10 7 6 7 7 7 6 6 8 8 8 10 11 9 7 7 8 7 7 7 7 8
3 3 3 4 5 5 6 7 5 5 4 2 7 9 9 8 7 5 2 6 11 12 9 9 8 4 4 8 8 9 9 7 6 6 6 9 11 12 12 13 13 13 14 15 16 16 15 15 15 15 17 19 19 20 22 22 21 22 23 20 19 20 19 17 14 12 10 9 7 7 7 6 6 7 7 7 8 8 6 5 5 5 4 3 3 4
4 4 3 5 6 6 7 8 6 5 1 5 8 9 10 9 7 4 3 2 10 15 12 10 10 9 2 8 8 7 5 5 6 6 7 10 11 11 11 12 13 15 17 18 18 18 17 17 17 17 18 19 19 19 21 22 22 22 22 20 20 21 20 18 16 13 11 9 8 7 6 5 5 6 7 7 8 8 7 7 7 5 5 5 4 4
4 5 5 6 7 6 7 7 3 1 3 8 11 10 9 10 9 6 6 0 10 14 12 9 9 10 5 4 5 3 1 2 4 6 8 11 12 11 12 14 15 16 17 18 18 18 18 17 16 16 17 17 17 16 17 18 19 20 20 19 19 19 18 16 15 14 12 11 10 7 6 6 7 8 9 9 9 8 8 9 8 7 6 6 4 4
3 4 5 6 6 5 6 5 1 3 4 10 12 10 11 10 7 5 2 4 10 12 10 8 8 7 4 2 2 1 2 3 6 9 11 13 13 13 14 16 16 16 17 17 17 17 16 15 15 15 14 13 14 14 14 14 15 14 14 15 15 15 15 15 15 13 13 13 11 8 7 8 9 11 11 11 10 9 9 9 9 7 6 7 6 5
2 2 4 5 4 4 5 3 3 4 5 12 11 9 11 8 4 1 5 6 8 10 10 9 8 7 5 4 5 4 5 8 10 11 11 12 13 12 13 16 17 18 18 16 14 14 15 14 15 15 11 9 9 11 11 11 12 12 12 13 13 11 12 14 14 13 13 12 10 7 7 8 9 10 10 9 9 9 8 8 8 7 6 7 7 6
4 3 3 1 2 4 5 3 3 3 6 13 10 6 9 7 2 3 6 6 6 8 7 6 7 8 6 6 7 9 11 11 11 11 10 11 12 10 12 16 17 17 16 14 12 13 14 13 13 12 10 7 8 8 9 10 11 11 10 11 11 10 10 11 11 11 10 9 8 6 7 8 7 7 8 7 7 7 7 6 7 7 7 7 6 6
5 4 2 3 4 3 2 2 2 2 6 11 8 6 7 7 4 3 5 5 6 7 6 5 6 8 8 6 7 11 11 8 8 10 10 10 11 12 13 16 17 16 15 14 14 14 13 11 11 10 9 8 7 7 8 9 10 10 9 9 9 9 9 9 9 7 6 5 5 5 5 6 6 5 6 6 5 5 5 5 5 5 4 4 3 4
5 4 4 4 5 4 3 5 5 4 5 8 9 8 8 7 6 6 6 6 6 7 6 6 6 8 8 8 7 7 7 7 8 11 12 12 13 14 14 16 16 16 15 15 15 13 11 10 10 10 9 8 7 7 7 7 8 9 8 7 7 7 7 7 6 6 5 4 4 4 4 5 5 5 5 5 4 4 3 3 4 4 3 2 2 2
5 2 2 1 5 8 7 6 6 5 6 7 8 8 8 9 8 8 8 7 7 8 7 6 7 8 7 7 6 6 8 10 10 11 11 12 12 13 14 15 16 15 15 14 12 11 10 10 10 10 10 9 8 8 9 8 8 8 7 6 6 6 6 5 5 5 5 4 3 3 3 4 5 5 5 5 4 4 3 2 2 3 1 1 1 1
4 1 2 1 4 5 4 5 7 6 6 7 7 8 9 10 9 9 8 8 8 9 8 8 8 7 6 5 5 6 8 10 10 10 10 10 11 12 14 15 14 13 13 12 10 9 9 10 10 9 9 9 8 9 9 8 8 7 5 5 5 6 6 5 5 5 4 3 2 3 2 2 2 4 5 5 5 4 4 3 3 3 2 0 1 1
3 2 3 2 3 2 3 6 7 6 7 7 6 6 8 9 10 10 9 9 9 9 9 10 9 8 7 6 5 7 9 9 9 9 8 9 10 12 14 15 15 14 12 10 9 8 8 9 10 9 8 8 7 8 8 8 7 6 4 4 5 5 5 4 4 4 4 3 2 2 2 1 2 2 3 4 3 4 5 5 3 3 3 4 5 4
2 2 1 2 3 4 6 6 6 6 7 7 7 7 7 7 8 10 10 10 11 10 10 10 10 9 8 6 5 6 7 8 8 8 8 8 9 12 14 15 15 16 13 9 9 8 7 7 8 8 7 6 6 7 7 7 6 5 4 4 4 4 4 4 3 3 3 3 2 2 2 3 4 2 2 3 4 7 8 9 9 8 7 6 5 5
1 1 2 0 1 2 3 3 3 3 3 5 7 7 7 7 7 9 9 11 11 11 10 9 9 9 7 6 5 5 6 7 7 7 8 9 11 13 16 16 16 16 14 12 10 9 8 7 6 7 6 5 5 6 7 7 6 5 5 5 4 4 4 4 3 3 3 3 3 2 1 1 2 2 1 3 5 5 3 2 5 7 8 6 3 3
1 2 2 1 2 3 2 1 2 2 3 5 5 6 6 6 6 8 9 9 10 10 10 9 8 8 7 6 5 4 4 5 6 7 7 10 13 14 14 15 16 15 15 15 14 12 10 8 7 7 5 4 3 4 5 6 5 5 5 5 4 4 3 3 3 3 3 3 3 3 2 2 2 2 1 1 3 4 4 3 1 4 4 4 3 3
Wind_Direction
199 206 212 216 223 212 210 230 225 227 233 125 164 234 138 150 164 142 149 155 169 169 174 186 154 162 205 185 177 172 169 172 168 163 162 163 162 167 167 160 162 164 158 159 162 160 158 161 157 154 156 155 151 146 146 149 148 146 146 145 146 148 148 150 153 156 157 155 154 157 159 160 157 149 152 154 147 142 139 140 145 145 146 147 147 144
202 216 219 216 223 223 221 220 200 235 259 161 166 185 140 157 135 132 150 148 171 178 159 173 163 177 221 211 188 174 172 174 168 164 163 164 165 167 166 162 164 164 158 160 161 159 160 162 159 157 158 156 153 153 155 155 152 152 151 149 151 152 152 154 156 158 159 158 158 162 163 160 155 153 159 160 152 146 142 143 147 146 148 148 148 151
203 224 225 216 222 234 237 226 208 229 254 243 152 136 139 145 109 115 143 154 175 173 152 178 177 175 217 241 210 176 172 173 169 168 164 164 167 167 167 165 166 164 161 163 162 161 162 162 161 160 159 159 157 158 159 158 156 154 153 153 153 153 154 156 157 159 159 157 159 159 160 156 153 158 159 156 150 145 146 151 152 149 153 153 154 157
200 221 225 219 218 230 247 245 239 234 246 250 104 115 160 161 160 134 152 166 171 162 161 168 177 152 123 249 223 177 170 171 169 171 166 167 168 166 169 167 168 167 162 166 167 164 162 163 165 163 163 161 161 162 161 161 161 158 157 155 154 153 154 154 154 156 152 148 145 136 141 140 141 149 149 146 148 146 149 155 158 158 159 161 162 163
218 215 218 219 208 221 239 235 236 236 242 193 127 145 173 168 198 160 158 164 156 158 154 142 150 142 163 234 215 173 174 173 169 172 169 171 170 167 170 170 171 170 166 168 169 166 162 165 168 166 166 164 164 166 163 165 167 162 160 157 154 153 151 152 152 149 143 144 146 137 136 130 131 143 149 155 159 155 156 160 163 165 165 168 167 168
228 206 205 215 201 224 242 232 225 226 248 216 166 170 139 148 161 145 157 162 162 172 162 162 172 166 199 219 195 167 182 177 170 175 174 171 172 171 173 173 173 171 170 170 169 168 164 166 171 167 169 168 166 169 166 167 169 161 160 158 155 153 151 153 151 147 147 152 156 153 153 151 150 156 161 166 165 161 164 164 164 165 167 171 169 172
222 175 196 216 204 224 238 237 223 216 243 236 193 173 127 138 151 151 161 167 181 170 163 188 197 139 189 221 199 173 186 189 177 178 178 174 173 175 176 175 175 174 172 173 171 171 167 168 172 170 171 172 168 169 167 166 166 160 159 159 158 157 153 154 154 154 157 158 162 165 166 163 162 163 160 162 162 161 163 161 160 164 167 171 172 173
207 165 191 214 216 225 229 231 208 205 242 246 167 183 140 146 152 153 164 161 134 113 143 207 233 107 188 217 200 181 190 204 190 182 179 178 177 176 179 177 178 178 173 173 174 174 171 170 173 172 173 175 170 168 167 166 163 159 161 160 160 161 157 158 159 160 160 158 164 171 169 166 165 162 156 156 156 155 157 158 161 166 167 172 176 173
200 174 187 208 221 226 224 227 194 195 237 156 83 224 141 132 130 154 175 137 139 146 152 195 187 147 208 195 183 182 196 204 195 189 181 180 181 178 182 180 178 179 174 176 177 173 173 172 173 174 175 177 172 167 167 165 161 160 161 161 161 163 161 160 161 163 164 158 161 167 167 167 163 156 157 158 154 152 153 155 159 164 168 173 177 176
188 207 205 213 222 219 227 232 199 207 244 57 49 240 144 129 127 165 190 111 147 226 173 178 177 186 224 183 177 184 200 201 195 197 185 181 183 181 185 182 178 177 175 179 177 172 175 174 173 174 175 177 171 166 166 165 162 161 162 162 163 164 163 163 163 165 165 159 161 162 161 163 156 151 157 157 152 151 152 155 157 161 170 176 180 182
151 209 217 237 231 219 231 232 199 218 262 1 229 230 181 155 140 140 148 111 156 253 201 177 176 187 215 194 194 187 191 191 192 197 187 184 185 182 186 184 177 175 175 179 175 172 176 175 175 174 173 174 168 165 167 166 164 163 164 164 164 165 165 165 166 167 166 164 164 159 153 157 157 154 156 155 154 156 157 161 164 166 173 180 183 184
175 208 217 247 245 240 243 230 187 213 252 256 214 205 222 187 144 118 118 165 207 231 226 179 176 191 210 212 204 187 182 182 183 192 187 186 186 183 185 182 175 174 177 178 172 173 176 174 176 176 172 170 166 166 169 167 165 165 166 165 166 168 168 168 170 171 169 167 165 161 155 155 159 161 160 160 160 161 163 166 167 168 172 177 183 185
197 212 210 219 232 244 256 235 183 204 228 234 204 197 230 206 172 187 185 199 219 169 160 168 175 201 222 234 207 188 188 182 175 186 189 188 187 185 184 178 172 174 179 178 173 174 174 173 179 178 170 168 167 168 171 169 165 166 167 166 168 170 170 171 173 174 172 171 169 165 161 159 159 164 166 166 165 164 169 171 169 172 175 176 181 185
201 199 203 209 212 215 231 235 202 192 204 216 206 200 229 227 216 228 204 199 203 147 146 168 184 203 187 226 207 188 191 190 176 171 189 194 187 183 184 178 171 174 180 178 173 175 175 174 180 178 170 169 169 170 175 172 165 166 168 168 170 171 172 173 174 176 176 175 174 170 168 166 164 168 170 173 174 170 174 175 174 178 178 178 182 183
214 209 199 202 199 189 207 233 246 237 207 208 213 210 229 241 242 255 242 221 189 146 137 171 196 235 142 200 218 185 183 191 174 138 157 196 188 184 185 180 174 175 180 180 175 179 177 174 179 178 172 172 172 172 177 174 166 167 168 169 172 172 173 175 175 178 179 179 180 176 175 174 173 177 176 176 179 177 179 178 175 179 181 179 179 178
220 230 185 186 198 187 198 222 248 266 235 198 206 214 225 237 247 270 280 65 120 151 117 194 205 36 126 172 182 167 166 178 172 150 169 191 190 193 189 182 180 177 179 181 179 182 178 174 179 179 173 175 176 177 178 175 172 171 169 171 175 173 174 176 176 179 181 181 182 180 181 181 179 182 181 181 184 183 183 180 176 178 181 179 174 172
219 238 146 167 201 197 197 211 219 247 260 191 208 214 222 240 251 274 266 135 165 183 173 205 177 123 147 158 144 153 158 163 179 190 196 198 203 204 192 183 184 180 178 180 180 183 178 175 178 178 178 180 180 180 180 177 176 174 171 173 176 176 176 177 178 181 182 182 184 183 185 186 185 187 189 190 189 184 180 180 181 181 179 177 173 174
235 239 143 164 207 195 195 214 212 228 246 220 213 206 213 235 246 267 257 211 220 222 191 210 182 154 185 173 146 161 165 168 183 191 192 198 213 209 191 185 188 182 178 180 182 183 179 176 178 179 183 184 183 183 180 178 178 177 176 176 178 179 179 179 180 182 183 183 185 186 188 192 193 193 195 194 188 184 183 183 184 183 180 179 179 179
252 248 151 168 208 185 184 215 213 218 230 239 256 240 221 229 223 221 236 244 239 221 179 235 213 180 187 167 159 172 175 174 180 182 184 193 200 201 191 189 190 184 179 181 182 181 180 180 180 183 185 184 184 184 180 180 181 181 181 181 181 181 182 182 182 183 184 185 188 187 188 193 195 197 199 195 188 186 189 190 186 186 184 180 181 180
251 257 161 166 201 184 181 213 214 202 214 234 255 256 232 229 234 235 238 255 262 240 179 228 219 152 90 173 173 177 182 178 176 179 185 192 192 193 195 192 190 187 180 180 183 182 182 183 183 184 186 183 183 185 183 184 185 184 183 184 184 182 181 184 183 183 186 187 189 188 187 192 195 198 199 195 193 192 192 194 191 188 186 182 183 183
245 253 230 169 192 193 188 202 218 208 198 215 229 232 224 215 227 248 246 245 264 262 227 232 226 103 79 189 177 172 182 183 183 185 186 192 192 189 194 197 191 188 183 179 183 185 183 184 185 184 184 183 184 187 188 186 185 185 184 185 186 182 181 185 185 185 187 189 191 189 187 191 193 196 199 195 194 195 193 194 195 192 188 187 188 187
239 255 250 188 181 203 200 191 216 231 216 206 214 223 228 223 221 232 236 239 261 265 238 234 240 112 85 50 147 156 177 182 184 188 187 192 192 184 188 199 192 186 189 187 186 186 184 185 187 184 183 183 183 189 192 188 186 185 183 185 187 184 183 186 186 184 185 189 192 191 191 192 192 195 200 198 195 195 195 194 194 193 190 190 192 191
313 287 268 251 215 205 203 192 206 230 237 224 217 221 226 226 223 228 236 240 254 268 256 231 204 115 116 146 129 142 173 180 177 182 186 187 187 181 181 189 187 166 197 223 203 187 181 185 186 183 183 182 180 189 194 189 183 182 182 185 186 185 185 188 189 184 184 190 193 192 193 194 194 195 199 203 201 198 199 196 193 193 194 194 193 193
331 267 256 271 267 191 192 193 194 214 237 237 223 223 226 225 220 221 239 263 261 263 263 240 204 125 127 152 138 145 160 171 174 175 175 172 175 182 177 175 176 163 182 219 215 193 181 184 186 183 182 180 178 186 191 185 179 178 181 185 186 187 186 188 191 186 183 190 193 193 194 195 197 197 199 205 206 203 203 201 196 195 197 199 197 193
243 250 236 247 239 182 177 178 180 203 231 244 234 227 226 232 232 221 216 252 266 267 274 264 210 131 130 146 159 157 152 156 168 167 165 161 165 181 177 166 165 159 165 190 196 189 185 186 186 181 175 173 176 181 183 180 177 177 180 182 184 187 187 188 191 189 185 191 194 193 196 197 199 200 201 205 207 204 206 207 202 200 201 203 202 198
262 264 251 243 233 203 184 196 222 213 210 225 240 238 230 231 237 235 214 217 239 263 275 275 134 128 144 151 169 175 156 152 158 157 158 163 168 176 172 160 157 148 128 119 129 153 170 170 173 171 167 170 176 177 176 175 175 176 180 183 183 185 186 186 190 190 187 191 193 192 196 200 201 201 201 206 208 204 204 208 208 206 205 203 204 205
269 253 251 260 259 256 274 302 284 245 204 208 226 234 236 232 233 239 233 218 223 243 250 246 127 145 156 157 173 179 164 155 156 156 158 164 169 172 167 160 158 152 137 124 115 112 117 129 145 156 160 170 177 173 172 173 174 176 179 182 182 182 184 184 187 189 188 191 194 192 194 201 203 204 203 205 210 209 204 205 209 211 210 208 208 209
271 245 236 245 247 252 269 289 279 249 216 208 213 220 231 241 241 244 243 226 213 233 244 301 355 200 186 182 181 176 170 162 158 159 160 163 170 171 169 168 170 169 159 150 141 136 137 132 137 152 157 165 171 166 166 173 175 179 182 183 183 183 185 184 184 185 186 189 193 192 194 200 203 207 208 205 208 215 213 207 206 211 213 213 215 215
274 244 228 241 232 231 250 265 255 241 231 222 215 213 222 229 227 235 243 232 214 228 247 352 327 273 206 183 171 162 178 170 156 156 155 157 166 169 169 171 177 184 180 171 166 162 159 149 146 157 160 165 172 165 165 172 174 177 182 183 184 187 187 186 184 185 186 188 190 190 193 199 202 206 212 209 205 213 219 215 209 210 212 216 220 221
283 257 251 273 255 219 229 244 230 228 237 236 227 232 248 242 228 226 235 229 224 228 219 208 250 13 38 350 171 152 169 167 151 153 150 152 162 166 170 173 178 188 189 185 185 181 175 169 166 169 169 174 187 185 181 181 177 179 183 183 185 188 187 186 183 183 187 188 187 186 188 193 195 198 203 205 204 207 214 217 216 216 215 215 219 224
260 245 245 281 273 222 210 222 221 223 227 220 246 315 283 264 250 246 250 244 238 238 216 207 214 114 84 308 226 144 150 152 149 157 156 157 162 162 170 175 174 181 188 192 193 188 182 180 174 175 176 177 192 201 199 193 186 184 182 181 184 186 188 190 187 186 191 189 184 181 180 182 185 189 194 198 202 206 209 214 218 219 218 216 218 223
254 249 238 254 259 230 209 216 213 209 206 185 100 355 305 264 262 271 281 284 276 263 244 235 236 116 118 148 153 131 146 150 151 160 164 166 168 168 174 176 171 172 175 183 190 187 186 190 187 188 187 187 197 205 207 204 196 190 185 184 185 184 184 189 191 191 191 186 180 178 179 182 186 191 193 194 197 203 208 215 216 216 219 221 221 222
252 262 251 244 246 226 217 225 213 198 196 187 127 18 354 342 322 320 340 358 356 318 266 256 320 88 124 135 136 157 168 155 149 155 161 166 173 172 167 161 159 159 156 158 158 149 142 150 165 173 171 168 171 174 182 186 177 166 162 163 166 169 174 182 189 192 188 180 179 185 192 197 202 204 204 201 201 204 208 215 216 217 219 223 226 227
250 256 255 254 261 235 226 262 247 211 198 166 61 31 21 33 6 6 39 24 6 4 343 359 54 102 134 130 137 173 173 143 140 147 150 154 160 151 135 122 118 121 118 114 112 107 101 96 96 100 104 108 112 112 118 131 137 136 136 136 139 150 163 167 169 172 169 169 187 205 214 214 213 213 210 208 212 217 219 220 220 222 223 225 230 234
268 252 247 243 246 243 246 277 265 227 173 77 47 33 21 18 22 59 79 43 9 27 27 3 92 135 155 149 158 175 151 124 125 132 133 135 132 124 119 114 111 112 110 105 105 109 111 109 109 110 105 100 99 104 108 117 129 135 140 149 154 152 151 147 145 154 156 157 176 202 215 214 212 212 208 207 211 217 220 222 224 224 224 225 229 230
292 272 255 241 230 237 243 243 249 209 110 103 55 33 16 15 26 70 99 55 20 18 7 317 178 171 177 170 162 150 130 118 110 100 106 119 123 126 131 127 119 116 115 117 120 122 122 120 120 119 114 109 107 105 101 106 118 123 126 139 144 137 139 147 151 165 160 150 162 186 202 206 207 208 207 207 208 210 214 220 224 224 219 221 229 229
286 276 258 241 225 229 237 229 227 223 179 135 54 26 11 13 8 359 89 64 37 19 2 349 316 185 152 139 132 124 121 121 114 95 85 94 101 106 109 107 109 114 117 118 117 116 118 118 116 115 114 112 108 104 103 106 111 113 113 117 120 117 119 121 120 123 123 120 132 148 159 175 186 189 194 202 201 198 202 208 211 212 208 215 226 219
259 259 257 246 228 227 235 226 220 226 219 73 33 10 4 4 349 338 67 66 33 17 13 7 344 331 113 121 126 130 131 130 123 105 80 80 86 91 93 97 105 113 113 113 111 109 108 109 109 110 109 106 102 102 106 108 109 110 110 109 111 111 109 105 105 108 107 103 110 127 140 153 168 172 178 189 187 177 167 161 162 163 164 169 174 165
238 232 235 245 234 228 233 232 230 225 182 36 11 354 355 352 335 309 204 103 21 7 7 13 353 337 52 125 134 143 153 147 129 116 94 90 92 97 103 107 111 115 115 113 110 107 106 105 104 105 105 103 102 103 105 105 102 99 98 98 101 100 96 95 98 100 100 98 97 107 128 141 148 157 165 168 161 153 142 130 123 118 108 99 97 110
225 221 218 231 236 234 233 233 232 138 59 14 352 341 347 346 328 279 224 186 11 357 355 11 359 340 352 114 135 150 157 106 121 127 116 107 104 105 113 117 117 118 116 110 107 107 107 105 104 102 101 101 106 108 106 104 101 97 95 94 92 88 83 85 90 91 91 94 92 92 106 112 106 109 115 118 118 122 126 119 109 108 112 110 113 115
229 231 229 233 238 240 235 231 159 102 36 354 342 337 337 327 300 265 254 351 349 341 348 7 360 340 344 59 104 71 38 75 117 128 120 113 110 110 116 117 113 109 107 105 107 110 108 103 98 93 90 94 104 108 106 105 105 104 103 98 90 83 81 84 86 83 84 89 88 84 88 90 88 88 89 92 99 103 107 108 107 113 123 122 119 111
272 257 239 236 249 244 228 214 153 117 20 346 333 343 348 324 264 320 353 334 330 342 358 5 355 350 13 53 60 53 56 76 96 107 108 107 105 105 110 110 103 101 102 101 100 99 96 92 90 90 87 85 92 97 99 104 108 108 107 103 99 94 94 96 93 84 81 87 88 87 94 91 84 82 82 90 101 101 97 100 101 98 95 98 101 94
348 313 247 224 328 260 224 192 168 141 29 356 339 3 17 9 31 10 339 325 342 359 7 4 357 7 34 70 86 84 76 71 76 84 88 94 99 104 109 106 103 107 111 108 103 102 102 100 99 102 104 100 97 100 102 102 102 103 102 101 103 106 106 105 100 86 81 88 92 95 100 94 87 90 94 98 104 102 100 102 99 94 94 100 108 109
4 339 325 48 24 309 262 88 80 79 40 24 22 49 46 32 25 351 332 346 7 6 3 3 13 34 58 83 90 88 88 93 106 113 112 114 121 130 128 121 122 128 129 124 121 120 119 118 117 116 113 107 104 106 105 100 96 97 96 93 96 105 106 104 105 102 99 107 111 114 116 109 107 114 112 109 109 107 110 113 106 103 109 113 124 126
30 10 355 29 50 50 60 83 85 61 50 53 54 58 55 45 32 13 8 18 18 9 8 11 21 49 87 115 117 115 134 154 148 136 133 132 131 131 131 131 133 134 129 125 127 132 133 127 121 115 107 104 104 102 101 102 99 97 93 87 91 103 108 113 124 128 136 146 141 143 148 142 142 141 131 130 131 124 130 143 134 123 119 101 97 112
63 36 323 19 107 106 95 97 102 83 68 72 69 61 53 45 35 29 30 32 23 16 21 28 31 47 87 122 133 142 152 151 143 135 131 130 129 128 129 132 133 133 130 127 130 137 132 120 114 112 110 110 112 111 110 111 109 104 101 100 101 102 107 119 130 129 135 146 146 151 165 168 167 159 149 147 149 149 161 165 127 111 127 178 143 121
113 235 262 164 144 146 121 97 95 86 71 69 71 68 59 48 40 38 37 35 29 26 29 35 41 53 69 90 116 129 133 133 134 133 130 128 127 124 121 118 114 114 117 117 119 126 125 116 112 111 108 106 107 108 108 108 109 111 116 121 120 112 109 113 115 116 122 133 147 162 178 190 178 160 160 167 169 166 164 156 140 139 145 200 158 152
115 247 250 141 126 134 122 107 100 90 75 62 55 56 55 49 46 45 42 40 35 34 35 38 46 57 51 46 89 126 132 132 133 135 134 132 130 127 122 114 106 102 100 96 97 105 111 111 112 112 108 102 100 103 106 107 109 110 109 107 108 108 111 111 110 118 127 137 155 153 139 168 188 161 162 167 129 83 70 57 64 121 102 47 38 32
97 246 244 141 126 116 121 127 128 119 96 73 61 58 53 49 49 48 47 47 41 35 37 41 46 58 64 63 85 117 128 129 134 143 142 137 139 136 129 122 115 113 113 107 98 95 92 94 101 106 105 101 100 105 106 105 106 110 107 102 102 108 115 111 106 116 125 124 131 128 129 178 191 169 156 156 108 73 57 40 38 58 77 65 47 27
226 293 355 356 144 109 109 108 118 139 119 78 66 63 53 49 53 51 46 48 46 38 35 38 39 47 60 68 82 113 131 137 152 167 157 144 142 137 132 130 127 123 126 125 114 106 105 103 99 94 88 87 96 107 107 104 104 106 106 108 114 118 122 123 122 125 121 106 103 99 87 160 163 109 131 171 135 100 87 50 39 53 66 66 45 359
46 34 6 354 88 113 138 90 84 140 129 90 75 66 49 39 48 54 48 46 47 43 39 39 37 37 41 42 50 78 123 147 163 174 169 157 152 146 142 144 142 138 144 145 137 133 134 129 119 115 110 111 111 108 109 109 106 101 100 105 114 118 121 129 128 129 126 103 87 73 41 40 80 75 2 218 141 120 131 147 79 22 23 22 358 317
Height
764 776 778 775 768 761 760 756 756 762 762 778 796 794 795 800 800 797 796 793 793 807 815 810 813 816 812 804 795 789 787 789 791 792 795 796 798 799 799 801 803 805 805 806 809 811 814 817 819 822 824 827 829 832 835 837 839 841 843 845 847 848 850 852 853 854 855 856 857 858 859 860 860 861 862 862 863 864 866 867 868 869 870 871 871 872
766 778 773 762 757 753 752 749 753 761 760 772 793 797 794 798 801 797 795 795 792 803 815 810 813 817 814 810 801 791 792 793 791 793 796 797 799 800 800 803 803 803 803 805 808 811 814 817 819 821 824 826 829 832 835 836 838 841 842 845 846 848 850 852 853 854 855 856 857 858 858 859 860 861 862 862 863 864 866 867 868 869 870 871 871 872
775 776 763 751 750 751 750 745 750 763 761 763 784 798 801 800 799 797 795 796 794 803 816 813 812 816 814 812 804 794 793 792 789 791 794 796 799 800 801 803 803 803 805 805 807 810 813 815 818 821 823 826 829 831 834 836 838 840 843 844 846 848 850 851 853 854 855 856 856 857 858 858 860 861 862 862 863 864 866 867 868 870 870 871 872 872
779 771 754 746 748 753 757 753 754 764 760 763 786 801 804 800 797 802 801 797 795 800 811 812 814 817 816 814 806 794 791 791 789 789 791 793 796 799 799 800 802 803 805 807 806 807 811 814 817 820 822 825 828 830 833 835 837 839 842 844 845 848 849 851 853 854 855 856 857 857 858 858 860 861 862 863 864 865 866 868 869 870 870 871 872 873
769 757 745 746 750 756 763 762 759 767 764 765 782 790 792 795 793 797 800 799 800 803 805 811 822 824 818 819 812 798 793 792 791 792 793 793 793 795 797 798 800 801 803 805 806 806 809 814 816 819 821 824 826 829 831 834 836 838 841 843 845 847 849 851 852 854 855 856 857 858 859 860 860 861 863 864 865 866 867 868 869 870 871 872 873 873
759 744 742 750 755 759 766 763 757 764 767 767 772 770 776 788 790 792 796 801 811 814 805 806 829 835 820 818 816 807 802 797 794 795 796 795 794 795 798 799 799 800 801 802 804 806 808 812 815 818 820 822 825 827 830 833 834 837 840 843 845 846 848 850 852 853 855 856 857 858 859 860 861 862 863 864 865 866 867 868 869 870 871 872 873 873
750 743 746 754 759 763 767 762 753 755 767 770 760 754 768 785 789 793 795 800 812 816 804 799 821 838 828 818 812 808 810 805 798 797 796 795 796 796 797 798 798 799 800 802 803 804 807 811 814 817 819 821 824 826 829 832 834 836 840 842 844 846 848 850 852 853 855 856 857 858 859 859 861 861 862 864 865 866 866 867 869 870 871 872 873 873
747 750 756 757 762 767 767 762 751 749 764 768 752 746 765 780 788 794 797 804 809 810 810 806 812 831 834 820 807 806 813 813 804 798 797 796 796 796 795 795 796 797 799 801 803 804 806 810 812 815 818 820 822 825 828 830 833 836 839 842 844 846 848 849 851 853 854 856 857 858 859 859 860 861 862 864 865 866 867 868 869 870 871 872 873 874
743 756 761 760 766 768 763 754 743 746 759 758 747 747 760 777 791 796 798 805 803 807 821 819 812 830 836 817 806 810 814 817 810 800 798 798 796 796 794 793 794 794 796 798 800 802 804 808 811 814 817 818 820 823 826 829 832 836 838 841 844 845 848 849 851 853 853 855 856 857 859 859 860 861 862 864 865 866 867 868 869 870 871 872 873 874
744 750 752 757 765 764 756 744 737 748 755 748 747 750 757 778 796 796 796 802 805 811 818 812 810 828 837 820 814 821 819 815 810 800 796 796 795 795 792 791 792 793 795 796 797 800 803 806 810 813 815 817 819 822 826 829 831 835 838 840 843 845 847 849 850 852 853 855 856 857 859 859 860 861 862 864 865 866 867 868 869 870 871 872 872 873
745 743 746 753 755 752 747 740 737 746 750 747 753 758 761 775 789 794 795 800 817 825 812 800 801 819 836 826 812 814 811 806 804 798 795 794 793 793 791 789 790 792 795 795 796 799 803 806 808 811 814 816 819 822 825 828 830 834 837 839 842 844 846 848 850 852 853 855 856 857 859 860 861 862 862 863 865 866 867 868 869 870 871 871 872 873
752 754 755 752 746 743 745 743 742 745 749 751 758 768 775 777 785 806 814 811 824 830 810 796 797 812 833 825 803 799 795 791 798 797 794 795 794 791 789 787 788 791 793 794 797 799 801 805 807 810 813 815 819 821 823 827 829 833 836 838 841 844 846 848 849 851 853 854 856 857 858 859 861 862 862 863 864 866 866 867 868 869 870 871 872 872
759 759 756 752 747 745 752 757 755 754 755 757 762 775 789 789 796 821 827 819 821 817 801 796 804 816 822 809 794 794 790 785 790 792 790 792 793 789 786 785 786 789 792 793 796 798 800 804 807 808 811 815 818 821 823 825 828 831 835 837 840 842 845 847 849 851 852 854 855 857 858 859 860 861 862 863 864 865 866 866 867 868 869 870 871 871
765 760 753 756 753 746 755 765 765 763 760 763 766 778 794 798 809 822 816 811 813 806 795 794 807 818 814 801 788 785 785 781 783 789 791 789 787 786 783 782 785 788 790 792 794 797 799 802 806 807 810 814 817 821 823 824 827 830 833 836 839 841 844 846 848 850 852 853 854 856 857 858 860 861 862 863 863 864 865 866 867 867 868 869 870 870
773 773 756 757 756 748 755 757 754 752 754 758 755 766 784 788 800 810 805 809 809 802 802 800 806 814 812 804 787 775 777 776 778 789 794 789 783 782 781 781 785 788 790 791 793 795 797 800 804 807 810 814 816 819 822 824 826 829 832 835 837 840 843 845 847 849 851 853 854 855 857 858 859 860 861 862 863 863 864 865 865 866 867 868 869 869
767 765 740 740 744 743 754 751 743 748 755 752 747 764 778 769 775 786 787 795 797 804 815 810 806 803 795 791 780 774 780 778 780 789 792 791 786 781 782 782 784 787 789 791 793 794 795 799 803 806 809 813 815 818 820 823 826 828 831 834 836 839 841 843 846 848 849 851 853 855 856 857 858 859 860 861 862 863 863 864 865 865 866 867 868 868
763 758 734 738 743 738 746 746 742 752 760 755 756 768 765 749 758 779 786 786 789 807 815 802 801 799 790 791 785 778 786 787 787 790 788 790 789 785 783 782 783 786 787 790 792 793 794 797 801 805 808 811 813 816 819 822 825 827 830 833 835 838 840 842 844 846 848 850 852 854 855 856 857 858 859 859 861 861 862 863 864 864 865 866 867 868
757 759 740 743 752 740 736 742 742 742 748 760 766 760 750 749 757 773 791 794 792 805 802 787 797 807 802 800 792 784 790 792 790 790 789 790 791 788 783 782 783 783 786 789 790 791 793 796 800 803 806 809 811 814 817 820 823 825 828 831 834 836 838 840 843 845 847 848 850 852 853 855 856 857 858 858 859 860 861 862 863 863 864 865 866 867
752 763 749 742 750 743 735 746 753 745 739 749 754 744 751 774 778 774 786 795 796 806 805 790 790 801 802 795 790 790 790 790 788 787 788 789 789 788 783 782 782 782 785 788 789 790 792 795 799 802 805 807 810 813 815 819 822 824 827 829 831 834 837 839 841 843 846 847 849 850 852 854 855 856 857 857 859 859 860 861 861 863 864 864 865 866
750 765 763 745 740 742 744 752 761 757 746 744 747 745 750 767 774 772 774 778 786 800 808 802 793 796 798 787 783 787 784 783 787 786 786 785 784 786 785 782 781 781 784 787 788 789 790 793 797 799 803 806 808 812 814 817 820 822 825 827 829 832 835 838 840 842 844 846 847 849 850 852 854 855 855 856 858 858 859 860 860 861 862 863 864 865
751 762 766 750 739 746 754 754 753 753 751 753 759 760 757 757 760 767 767 763 770 786 799 807 805 798 790 778 774 777 776 776 780 781 783 782 781 784 785 783 781 780 782 784 786 787 788 791 794 797 802 805 807 811 812 815 818 820 823 826 828 830 833 836 838 840 842 844 846 847 849 851 852 854 855 855 857 858 858 859 859 860 861 862 863 863
756 758 759 754 750 754 752 743 738 739 740 746 755 757 758 758 761 778 784 766 758 770 780 795 806 797 780 771 771 772 772 772 774 776 779 780 781 783 784 784 782 781 782 782 782 784 786 789 792 795 800 803 806 809 811 814 817 819 822 825 827 829 831 834 836 838 841 842 844 846 848 849 851 852 854 854 855 856 857 858 858 859 860 861 862 862
754 759 760 757 749 746 741 732 732 734 731 734 743 745 748 752 760 781 793 775 762 765 764 773 796 796 774 766 769 771 770 770 771 776 780 780 782 783 784 785 784 784 786 786 782 780 783 787 790 795 799 802 806 809 811 814 816 819 821 824 826 828 831 833 835 837 839 841 843 844 846 848 849 851 852 852 853 854 855 856 857 858 859 860 860 861
758 765 768 764 749 738 733 728 728 730 732 739 741 739 742 746 750 760 768 765 767 772 767 774 797 799 776 763 765 768 770 771 771 773 777 779 781 782 782 784 787 789 792 792 785 780 782 787 789 793 798 801 806 809 810 812 815 818 821 823 825 828 830 832 834 836 838 840 842 843 845 847 848 849 850 851 852 853 854 855 855 857 857 858 858 859
767 769 769 773 769 758 752 749 747 743 744 749 745 738 739 740 740 745 752 763 774 773 767 779 799 797 776 765 765 764 767 772 771 770 773 778 783 784 783 784 788 790 791 790 786 782 784 787 789 793 797 801 805 808 809 812 814 818 820 822 825 826 829 831 833 834 836 839 841 842 844 845 846 847 848 849 850 851 852 853 854 855 856 856 857 857
769 771 771 779 783 778 774 773 765 755 752 751 746 741 739 739 741 745 754 772 784 776 767 775 790 789 774 769 771 766 765 771 771 771 774 777 781 783 782 784 787 789 789 789 787 787 787 788 791 795 798 802 805 807 810 811 814 817 819 822 824 826 828 829 832 833 835 837 839 841 842 843 844 845 846 847 848 849 850 852 852 853 854 855 856 856
768 771 768 775 780 775 773 769 753 743 749 754 751 746 742 739 739 743 755 771 777 774 771 769 774 781 777 774 775 770 767 771 772 773 777 778 779 779 779 783 786 788 789 790 789 791 792 793 795 797 800 803 804 806 809 811 814 816 818 821 823 825 827 828 830 832 834 836 838 839 841 842 843 844 845 846 846 847 848 849 850 851 852 853 854 855
773 775 767 769 772 766 761 758 747 741 744 748 749 747 744 741 741 747 757 761 762 773 781 768 763 775 777 773 774 773 768 769 771 773 776 778 778 778 779 782 786 788 790 791 792 794 796 798 799 800 802 804 805 806 809 811 814 816 818 820 822 824 826 828 829 831 833 835 836 838 840 841 842 843 843 845 845 846 847 847 849 850 851 852 853 853
774 777 765 761 763 758 753 750 746 743 741 739 740 742 742 744 748 753 755 751 756 773 779 770 766 772 771 767 768 771 769 768 769 770 772 775 778 779 780 784 787 789 791 792 794 796 798 800 801 802 804 805 806 807 809 811 813 815 817 820 821 824 825 827 829 831 832 834 835 837 839 840 842 842 843 844 845 846 846 846 847 848 849 851 851 851
775 777 766 762 760 754 751 750 745 744 744 742 741 741 743 743 743 747 748 745 749 757 760 763 767 768 771 771 765 764 766 766 768 770 771 774 778 780 782 786 788 790 790 791 794 796 798 800 801 804 805 806 808 809 809 811 812 814 817 819 821 823 825 827 829 830 832 833 834 836 838 839 841 842 843 844 844 845 846 846 847 847 848 849 850 850
775 777 768 766 765 757 750 749 746 746 749 750 752 752 751 750 748 748 748 745 748 753 755 759 765 770 778 779 769 764 767 769 772 776 775 776 778 779 782 785 786 788 789 790 792 795 797 799 801 804 805 807 808 809 810 811 813 814 816 818 820 822 824 826 828 830 831 833 834 835 837 838 840 841 842 843 844 844 845 845 846 846 847 848 849 849
774 776 769 769 775 767 752 750 750 747 751 761 768 768 762 760 759 756 752 751 754 761 762 763 769 776 778 776 772 770 770 773 779 781 780 779 777 779 782 783 784 787 789 790 792 795 797 799 800 803 805 807 809 810 811 812 813 815 816 818 820 821 824 826 828 830 831 832 834 835 836 838 839 840 841 841 842 843 844 844 845 845 846 847 847 848
773 778 775 773 780 773 756 751 749 751 768 783 779 772 768 766 764 763 762 761 761 764 769 771 775 776 771 769 775 777 774 775 780 780 781 782 780 780 782 784 786 788 790 792 794 796 799 800 802 804 805 807 809 811 812 813 814 815 816 818 820 822 824 826 827 830 831 832 834 835 836 837 838 839 840 840 841 842 842 843 844 844 845 846 846 847
774 780 778 775 783 781 764 756 756 766 788 793 774 764 767 766 769 777 782 779 770 767 771 772 772 773 769 769 777 780 775 774 777 778 779 780 781 783 786 787 790 792 794 796 798 799 801 802 804 806 807 808 810 811 813 814 814 814 815 818 821 823 825 826 827 828 829 831 833 834 836 837 838 839 840 839 840 841 841 842 842 843 844 845 845 846
777 778 778 776 783 784 772 771 786 795 794 782 767 763 764 763 765 775 784 783 774 772 776 776 774 774 773 774 777 777 774 773 775 776 777 778 781 785 789 792 793 796 798 800 800 801 803 804 806 807 808 810 811 812 814 815 815 814 815 818 821 824 826 828 829 829 829 829 831 833 836 837 837 838 837 837 838 839 840 840 841 842 843 843 844 845
778 779 779 777 781 787 786 792 805 803 785 771 769 769 766 768 770 776 786 788 779 778 783 783 777 773 773 776 776 774 773 773 776 778 777 779 782 785 790 794 795 798 800 802 803 804 805 807 808 809 811 812 813 813 814 815 816 816 817 820 822 824 826 829 831 832 832 831 831 832 834 834 835 835 835 835 837 837 838 839 840 841 841 842 842 843
777 780 782 782 783 788 794 795 794 794 787 780 780 777 774 777 779 780 791 793 781 777 783 784 777 768 767 772 773 771 772 776 784 786 782 781 784 787 790 794 797 800 802 803 805 807 808 810 811 812 813 813 814 815 815 816 817 817 819 823 825 826 828 830 831 833 834 833 832 832 833 833 834 834 834 835 836 837 838 838 839 840 840 841 841 842
775 778 781 787 785 782 791 798 797 803 805 796 788 782 775 777 776 776 790 797 785 778 780 782 780 774 770 774 776 775 776 784 794 795 789 787 790 792 795 798 800 802 804 805 807 809 810 812 812 813 814 814 815 817 817 818 819 819 821 825 827 828 830 831 832 833 834 833 833 833 833 834 834 834 835 836 836 837 838 838 839 840 840 840 840 841
775 775 777 787 788 783 792 801 802 808 810 800 792 783 775 775 773 774 794 806 794 783 781 782 783 781 775 776 778 777 782 793 800 799 794 793 796 797 799 802 803 804 805 806 808 810 811 813 814 815 815 816 818 820 820 822 823 823 825 827 829 830 830 831 833 833 834 834 834 835 835 835 835 835 836 838 838 838 838 839 839 840 839 840 841 842
777 777 779 787 788 784 788 795 800 807 808 799 792 785 777 775 772 780 805 814 796 785 785 784 786 786 779 777 779 782 787 796 801 798 793 794 798 801 803 804 805 806 806 808 810 812 814 815 816 817 818 819 821 823 824 825 826 827 828 829 830 831 831 833 834 834 835 835 835 837 838 837 837 837 837 838 839 839 839 839 840 840 840 841 842 843
780 779 780 784 785 784 787 796 804 808 803 796 792 786 777 777 782 796 812 810 795 788 788 785 786 788 784 782 784 787 789 790 792 793 792 795 800 804 807 808 809 809 811 814 816 816 817 818 819 820 821 822 823 824 826 828 829 830 830 831 832 833 834 835 835 836 836 836 836 839 840 840 838 838 838 839 840 840 840 840 841 841 841 842 843 843
786 785 782 781 785 787 788 797 811 814 803 794 791 785 778 786 801 809 807 801 795 792 791 790 789 788 789 791 793 794 792 789 790 794 796 799 804 808 810 812 813 815 817 819 820 819 820 822 822 824 825 826 827 827 828 830 831 832 833 833 834 835 836 837 838 838 838 838 839 842 843 842 840 839 840 841 841 842 842 842 842 843 842 843 844 845
791 793 790 785 789 790 788 799 818 822 808 794 791 791 792 800 811 810 802 797 795 792 792 793 790 789 794 797 797 797 797 796 798 801 802 804 808 812 814 815 817 819 821 822 823 823 825 827 827 827 828 830 831 831 832 833 833 833 835 836 836 837 838 839 839 840 841 842 843 844 844 843 842 842 843 844 844 844 844 843 844 844 845 845 846 846
792 796 796 793 796 802 806 812 820 817 805 796 798 803 806 807 806 804 802 799 796 793 792 792 791 793 798 800 800 802 804 804 803 804 805 808 810 813 815 817 819 821 821 822 824 826 828 830 830 830 831 832 833 834 834 834 835 835 837 838 839 839 840 840 841 842 843 845 845 845 845 845 845 845 846 846 846 845 845 846 846 846 846 846 846 847
796 795 797 798 800 806 812 814 812 807 801 799 802 804 805 805 802 801 801 800 798 796 793 793 794 795 798 802 805 807 808 807 804 803 805 808 809 811 814 817 819 821 821 823 826 827 829 830 831 832 833 835 835 836 836 836 837 838 839 840 841 841 842 843 843 844 845 846 846 846 846 846 847 847 846 846 846 846 847 847 846 847 847 847 847 847
793 790 793 797 799 802 806 806 805 805 804 802 803 804 804 804 802 801 801 802 801 798 795 795 797 797 798 802 804 804 804 805 804 804 805 807 809 811 814 817 820 822 823 825 827 828 829 831 833 834 835 836 837 837 838 839 840 841 841 842 843 843 844 845 845 845 846 847 847 846 846 846 847 847 846 846 846 847 848 847 847 847 848 848 848 849
791 791 791 793 798 806 812 809 805 806 806 804 803 804 804 805 804 803 803 804 802 799 797 797 798 798 799 800 801 803 803 803 805 807 808 809 811 813 815 819 822 825 826 827 828 830 831 833 835 837 837 838 838 838 839 840 841 842 842 843 843 844 844 845 846 846 846 847 847 846 846 846 846 846 846 846 846 847 847 847 847 848 849 849 849 849
792 793 793 794 799 808 815 811 806 806 807 805 805 807 807 807 807 805 804 805 803 801 800 799 799 801 802 802 803 805 805 806 809 811 811 813 815 817 818 821 824 827 829 831 832 833 834 836 837 839 839 840 839 839 840 841 841 842 843 843 843 844 845 845 845 846 846 847 847 846 846 846 846 846 845 846 846 845 846 847 847 848 849 850 850 850
791 794 793 794 801 809 812 809 807 810 812 810 809 810 809 809 809 808 807 807 806 805 803 801 801 803 805 806 807 807 809 811 812 813 813 815 817 819 821 823 824 827 831 833 834 835 836 838 839 840 840 841 841 841 842 842 842 843 843 844 844 845 845 846 846 846 846 846 846 846 847 847 846 845 845 845 846 846 847 848 849 849 850 851 852 852
794 799 797 799 810 818 816 810 809 815 819 816 813 813 812 810 810 811 810 809 809 809 808 806 806 805 805 807 807 809 812 815 815 814 815 817 819 821 822 823 824 826 829 831 833 835 837 840 841 842 843 843 843 843 843 843 844 844 844 845 845 846 846 846 846 846 846 846 847 847 847 846 846 846 846 846 846 848 849 850 851 851 852 853 854 854
798 804 803 805 814 820 817 811 809 813 817 816 814 813 813 811 811 813 813 812 812 812 811 810 810 809 809 808 808 809 812 814 815 816 816 818 821 823 823 823 824 825 827 828 830 833 837 840 841 843 844 844 844 844 844 844 844 844 845 845 846 846 847 847 846 846 846 846 847 847 847 847 847 847 847 847 847 849 851 852 852 853 853 854 855 855